STARLINK-3085, 49156

Orbit data source: Space-Track

STARLINK-3085, 49156 is a payload satellite owned by SpaceX/Seattle (US) in LEO that was launched on Tue, 14 Sep 2021 UTC via an FALCON 9 launch vehicle from the Air Force Western Test Range (AFWTR). Payload-class satellites include a variety of spacecraft equipped with specific instruments for various scientific and technological missions. These include communications satellites like Starlink; space stations such as the ISS; scientific satellites like the Hubble; Earth observation satellites from companies like Planet Labs, Umbra, and HawkEye 360; GPS; miniature CubeSats for education and research; and military/defense satellites.

Loading next visibility...
Identifier
49156, 2021-082AC
Orbit
LEO
Country
Flag of USUS
Related business
Manufacturer
SpaceX/Seattle
Mission
Operational Commercial Communications
Bus & Motor
STARLINK, Unknown motor
Mass
297 kg wet, ~275 kg dry
Launch date (UTC)
2021-09-14 (5 years ago)
Launch vehicle
FALCON 9
Launch site
Air Force Western Test Range (AFWTR)
Object type
Payload
Rocket body
Debris
Shape & HBR
Box + 1 Pan, 10.1 m
Radar Cross Section
13.562 m², Large (>1 m²)

Expand to show TLE details & history
Last TLE update: 2 days ago

TLE from 2 days ago
0 STARLINK-3085
1 49156U 21082AC  26170.95222006  .00000519  00000-0  51307-4 0  9995
2 49156  69.9999 356.6081 0002932 267.2732  92.8092 14.98333319263366
Epoch: 2026-06-19T22:51Z
TLE epoch observation values (Epoch: 2026-06-19T22:51:11.813Z)
Latitude
0.00004°
Longitude
105.63508°
Altitude
574.57 km
Speed
7.574 km/s
True Right ascension
23h 46m 25s
True Declination
0° 00' 00"
Sunlit
Object was in daylight at epoch
Visualization orbit readout
Latitude
Unknown
Longitude
Unknown
Altitude
Unknown
Speed
Unknown
Apparent Right ascension
Unknown
Apparent Declination
Unknown
Sunlit
N/A
Visualization observer readout
Local Sidereal Time
21:41:23
Azimuth
Unknown
Elevation
Unknown
Doppler factor
Unknown
Orbital elements
Apogee altitude
572.031 km
Perigee altitude
567.957 km
Semi-major axis
6,948.131 km
Eccentricity
0.00029
Inclination
69.9999°
RAAN
356.6081°
Arg. of periapsis
267.2732°
True anomaly
92.84276°
Mean anomaly
92.8092°
Eccentric anomaly
92.82598°
Mean motion
3.7475 °/min
Orbital period
96.06 mins
BSTAR
0.000051307
Loading maneuver chart data...
Computing Atmospheric mass density...

Documentation

Showing up to 5 results
|